| time (UTC) | temp F | wind direction | speed MPH | gust MPH | rain 1hr in | rain 24hr in | rain mn in | humidity % | barometer mb |
| 20260506073333 | 77 | 145 | 4.0 | 9.0 | 0.00 | 0.00 | 0.00 | 88 | 1006.8 |
| 20260506072827 | 77 | 133 | 4.0 | 9.0 | 0.00 | 0.00 | 0.00 | 88 | 1007.1 |
| 20260506072322 | 77 | 146 | 5.0 | 8.0 | 0.00 | 0.00 | 0.00 | 88 | 1007.1 |
| 20260506071822 | 77 | 156 | 5.0 | 9.0 | 0.00 | 0.00 | 0.00 | 88 | 1007.1 |
| 20260506071323 | 77 | 151 | 6.0 | 10.0 | 0.00 | 0.00 | 0.00 | 88 | 1007.2 |
| 20260506071043 | 77 | 90 | 6.0 | 10.0 | 0.00 | 0.00 | 0.00 | 88 | 1007.2 |
| 20260506070318 | 77 | 90 | 6.0 | 9.0 | 0.00 | 0.00 | 0.00 | 88 | 1007.2 |
| 20260506062306 | 77 | 157 | 6.0 | 13.0 | 0.00 | 0.00 | 0.00 | 88 | 1007.7 |
| 20260506061756 | 77 | 169 | 6.0 | 13.0 | 0.00 | 0.00 | 0.00 | 88 | 1007.7 |
| 20260506061250 | 77 | 90 | 7.0 | 12.0 | 0.00 | 0.00 | 0.00 | 88 | 1007.7 |
| 20260506060741 | 77 | 170 | 6.0 | 12.0 | 0.00 | 0.00 | 0.00 | 88 | 1007.7 |
| 20260506060231 | 77 | 164 | 7.0 | 12.0 | 0.00 | 0.00 | 0.00 | 88 | 1007.7 |
| 20260506051109 | 77 | 170 | 9.0 | 14.0 | 0.00 | 0.00 | 0.00 | 88 | 1007.2 |
| 20260506050558 | 77 | 158 | 9.0 | 14.0 | 0.00 | 0.00 | 0.00 | 88 | 1007.2 |
| 20260506045039 | 77 | 90 | 10.0 | 16.0 | 0.00 | 0.00 | 0.00 | 88 | 1007.1 |
| 20260506044529 | 77 | 90 | 10.0 | 16.0 | 0.00 | 0.00 | 0.00 | 88 | 1007.1 |
| 20260506044023 | 77 | 117 | 9.0 | 18.0 | 0.00 | 0.00 | 0.00 | 88 | 1007.0 |
| 20260506043517 | 77 | 161 | 9.0 | 18.0 | 0.00 | 0.00 | 0.00 | 88 | 1007.0 |
| 20260506043016 | 77 | 169 | 10.0 | 17.0 | 0.00 | 0.00 | 0.00 | 87 | 1007.0 |
| 20260506042518 | 77 | 158 | 10.0 | 17.0 | 0.00 | 0.00 | 0.00 | 87 | 1006.8 |
| 20260506042016 | 77 | 147 | 11.0 | 18.0 | 0.00 | 0.00 | 0.00 | 87 | 1006.8 |
| 20260506041516 | 77 | 149 | 12.0 | 18.0 | 0.00 | 0.00 | 0.00 | 87 | 1006.8 |
| 20260506041016 | 77 | 90 | 12.0 | 18.0 | 0.00 | 0.00 | 0.00 | 87 | 1006.9 |
| 20260506040516 | 77 | 90 | 11.0 | 17.0 | 0.00 | 0.00 | 0.00 | 87 | 1006.9 |
| 20260506040017 | 77 | 90 | 11.0 | 17.0 | 0.00 | 0.00 | 0.00 | 87 | 1006.9 |
| 20260506035516 | 77 | 90 | 11.0 | 20.0 | 0.00 | 0.00 | 0.00 | 87 | 1006.7 |
| 20260506035018 | 77 | 90 | 11.0 | 20.0 | 0.00 | 0.00 | 0.00 | 87 | 1006.7 |
| 20260506034517 | 77 | 90 | 12.0 | 21.0 | 0.00 | 0.00 | 0.00 | 87 | 1006.7 |
| 20260506034017 | 77 | 151 | 11.0 | 21.0 | 0.00 | 0.00 | 0.00 | 87 | 1006.7 |
| 20260506033515 | 77 | 134 | 11.0 | 17.0 | 0.00 | 0.00 | 0.00 | 87 | 1006.7 |
| 20260506033006 | 77 | 90 | 10.0 | 17.0 | 0.00 | 0.00 | 0.00 | 87 | 1006.7 |
| 20260506032503 | 77 | 148 | 9.0 | 16.0 | 0.00 | 0.00 | 0.00 | 87 | 1006.7 |
| 20260506031949 | 77 | 141 | 8.0 | 16.0 | 0.00 | 0.00 | 0.00 | 87 | 1006.7 |
| 20260506031440 | 77 | 172 | 9.0 | 16.0 | 0.00 | 0.00 | 0.00 | 87 | 1006.7 |
| 20260506030933 | 77 | 166 | 9.0 | 16.0 | 0.00 | 0.00 | 0.00 | 87 | 1006.7 |
| 20260506030429 | 77 | 161 | 8.0 | 14.0 | 0.00 | 0.00 | 0.00 | 87 | 1006.7 |
| 20260506025930 | 77 | 152 | 9.0 | 13.0 | 0.00 | 0.00 | 0.00 | 87 | 1006.5 |
| 20260506025428 | 77 | 172 | 8.0 | 15.0 | 0.00 | 0.00 | 0.00 | 87 | 1006.5 |
| 20260506024934 | 77 | 149 | 7.0 | 15.0 | 0.00 | 0.00 | 0.00 | 87 | 1006.5 |
| 20260506024426 | 77 | 157 | 8.0 | 15.0 | 0.00 | 0.00 | 0.00 | 87 | 1006.2 |
| 20260506024154 | 77 | 155 | 8.0 | 15.0 | 0.00 | 0.00 | 0.00 | 87 | 1006.2 |
| 20260506023424 | 77 | 152 | 9.0 | 13.0 | 0.00 | 0.00 | 0.00 | 86 | 1006.2 |
| 20260506022925 | 77 | 161 | 9.0 | 13.0 | 0.00 | 0.00 | 0.00 | 86 | 1006.1 |
| 20260506022422 | 77 | 90 | 9.0 | 16.0 | 0.00 | 0.00 | 0.00 | 86 | 1006.1 |
| 20260506021922 | 77 | 174 | 9.0 | 16.0 | 0.00 | 0.00 | 0.00 | 86 | 1006.1 |
| 20260506021423 | 77 | 146 | 9.0 | 14.0 | 0.00 | 0.00 | 0.00 | 86 | 1005.7 |
| 20260506021132 | 77 | 171 | 10.0 | 14.0 | 0.00 | 0.00 | 0.00 | 86 | 1005.7 |
| 20260506020355 | 77 | 134 | 10.0 | 14.0 | 0.00 | 0.00 | 0.00 | 86 | 1005.7 |
| 20260506015843 | 78 | 166 | 9.0 | 16.0 | 0.00 | 0.00 | 0.00 | 86 | 1005.7 |
| 20260506015340 | 78 | 132 | 9.0 | 16.0 | 0.00 | 0.00 | 0.00 | 86 | 1005.7 |
| 20260506014840 | 78 | 147 | 10.0 | 15.0 | 0.00 | 0.00 | 0.00 | 86 | 1005.7 |
| 20260506014340 | 78 | 159 | 11.0 | 15.0 | 0.00 | 0.00 | 0.00 | 86 | 1005.5 |
| 20260506013841 | 78 | 159 | 11.0 | 16.0 | 0.00 | 0.00 | 0.00 | 86 | 1005.5 |
| 20260506013342 | 78 | 164 | 10.0 | 16.0 | 0.00 | 0.00 | 0.00 | 86 | 1005.5 |
| 20260506012838 | 78 | 164 | 11.0 | 17.0 | 0.00 | 0.00 | 0.00 | 86 | 1005.1 |
| 20260506012339 | 78 | 177 | 12.0 | 18.0 | 0.00 | 0.00 | 0.00 | 86 | 1005.1 |
| 20260506012102 | 78 | 143 | 12.0 | 18.0 | 0.00 | 0.00 | 0.00 | 86 | 1005.1 |
| 20260506011554 | 78 | 90 | 12.0 | 18.0 | 0.00 | 0.00 | 0.00 | 85 | 1005.1 |
| 20260506010827 | 78 | 90 | 11.0 | 18.0 | 0.00 | 0.00 | 0.00 | 85 | 1005.1 |
| 20260506010325 | 78 | 174 | 11.0 | 19.0 | 0.00 | 0.00 | 0.00 | 85 | 1005.1 |
| 20260506010054 | 78 | 165 | 12.0 | 19.0 | 0.00 | 0.00 | 0.00 | 85 | 1005.0 |
| 20260506005326 | 78 | 184 | 11.0 | 19.0 | 0.00 | 0.00 | 0.00 | 85 | 1005.0 |
| 20260506004818 | 78 | 90 | 11.0 | 19.0 | 0.00 | 0.00 | 0.00 | 85 | 1005.0 |
| 20260506004318 | 78 | 166 | 12.0 | 20.0 | 0.00 | 0.00 | 0.00 | 85 | 1004.8 |
| 20260506004043 | 79 | 90 | 12.0 | 21.0 | 0.00 | 0.00 | 0.00 | 85 | 1004.8 |
| 20260506003315 | 79 | 90 | 11.0 | 21.0 | 0.00 | 0.00 | 0.00 | 85 | 1004.8 |
| 20260506002816 | 79 | 90 | 12.0 | 23.0 | 0.00 | 0.00 | 0.00 | 85 | 1004.8 |
| 20260506002320 | 79 | 157 | 12.0 | 23.0 | 0.00 | 0.00 | 0.00 | 85 | 1004.8 |
| 20260506001816 | 79 | 157 | 12.0 | 19.0 | 0.00 | 0.00 | 0.00 | 85 | 1004.8 |
| 20260506001324 | 79 | 90 | 11.0 | 18.0 | 0.00 | 0.00 | 0.00 | 85 | 1004.8 |
| 20260506000809 | 79 | 171 | 13.0 | 19.0 | 0.00 | 0.00 | 0.00 | 85 | 1004.8 |
| 20260506000258 | 79 | 90 | 13.0 | 21.0 | 0.00 | 0.00 | 0.00 | 85 | 1004.8 |
| 20260505235744 | 79 | 158 | 12.0 | 21.0 | 0.00 | 0.00 | 0.00 | 84 | 1004.6 |
| 20260505235239 | 79 | 143 | 12.0 | 23.0 | 0.00 | 0.00 | 0.00 | 84 | 1004.6 |
| 20260505234733 | 80 | 145 | 13.0 | 23.0 | 0.00 | 0.00 | 0.00 | 84 | 1004.6 |
| 20260505234229 | 80 | 161 | 15.0 | 23.0 | 0.00 | 0.00 | 0.00 | 84 | 1004.8 |
| 20260505233727 | 80 | 157 | 14.0 | 23.0 | 0.00 | 0.00 | 0.00 | 84 | 1004.8 |
| 20260505233225 | 80 | 175 | 12.0 | 22.0 | 0.00 | 0.00 | 0.00 | 84 | 1004.8 |
| 20260505232945 | 80 | 90 | 11.0 | 23.0 | 0.00 | 0.00 | 0.00 | 84 | 1004.9 |
| 20260505232227 | 80 | 155 | 12.0 | 23.0 | 0.00 | 0.00 | 0.00 | 84 | 1004.9 |
| 20260505231726 | 80 | 170 | 12.0 | 23.0 | 0.00 | 0.00 | 0.00 | 84 | 1004.9 |
| 20260505231458 | 80 | 167 | 13.0 | 23.0 | 0.00 | 0.00 | 0.00 | 84 | 1004.8 |
| 20260505230731 | 80 | 144 | 13.0 | 21.0 | 0.00 | 0.00 | 0.00 | 84 | 1004.8 |
| 20260505230225 | 80 | 90 | 13.0 | 22.0 | 0.00 | 0.00 | 0.00 | 84 | 1004.8 |
| 20260505225727 | 80 | 155 | 14.0 | 22.0 | 0.00 | 0.00 | 0.00 | 84 | 1005.1 |
| 20260505225500 | 80 | 148 | 15.0 | 22.0 | 0.00 | 0.00 | 0.00 | 83 | 1005.1 |
| 20260505224942 | 80 | 172 | 15.0 | 23.0 | 0.00 | 0.00 | 0.00 | 83 | 1005.1 |
| 20260505223717 | 80 | 90 | 13.0 | 21.0 | 0.00 | 0.00 | 0.00 | 83 | 1005.1 |
| 20260505223210 | 81 | 130 | 12.0 | 21.0 | 0.00 | 0.00 | 0.00 | 83 | 1005.1 |
| 20260505222659 | 81 | 90 | 12.0 | 20.0 | 0.00 | 0.00 | 0.00 | 83 | 1005.1 |
| 20260505222159 | 81 | 162 | 12.0 | 20.0 | 0.00 | 0.00 | 0.00 | 83 | 1005.1 |
| 20260505221658 | 81 | 152 | 12.0 | 19.0 | 0.00 | 0.00 | 0.00 | 83 | 1005.1 |
| 20260505221200 | 81 | 156 | 12.0 | 19.0 | 0.00 | 0.00 | 0.00 | 83 | 1005.3 |
| 20260505220656 | 81 | 153 | 12.0 | 19.0 | 0.00 | 0.00 | 0.00 | 83 | 1005.3 |
| 20260505220155 | 81 | 140 | 12.0 | 19.0 | 0.00 | 0.00 | 0.00 | 83 | 1005.3 |
| 20260505215655 | 81 | 130 | 11.0 | 20.0 | 0.00 | 0.00 | 0.00 | 83 | 1005.6 |
| 20260505215156 | 81 | 151 | 12.0 | 20.0 | 0.00 | 0.00 | 0.00 | 83 | 1005.6 |
| 20260505214655 | 81 | 144 | 12.0 | 19.0 | 0.00 | 0.00 | 0.00 | 83 | 1005.6 |
| 20260505214155 | 81 | 90 | 13.0 | 21.0 | 0.00 | 0.00 | 0.00 | 83 | 1005.6 |
| 20260505213928 | 81 | 183 | 13.0 | 21.0 | 0.00 | 0.00 | 0.00 | 83 | 1005.6 |
| 20260505213155 | 81 | 161 | 10.0 | 19.0 | 0.00 | 0.00 | 0.00 | 83 | 1005.6 |
| 20260505212657 | 82 | 134 | 10.0 | 18.0 | 0.00 | 0.00 | 0.00 | 83 | 1005.7 |
| 20260505212420 | 82 | 150 | 12.0 | 18.0 | 0.00 | 0.00 | 0.00 | 83 | 1005.7 |
| 20260505211700 | 82 | 155 | 11.0 | 17.0 | 0.00 | 0.00 | 0.00 | 82 | 1005.7 |
| 20260505211201 | 82 | 166 | 10.0 | 17.0 | 0.00 | 0.00 | 0.00 | 82 | 1005.9 |
| 20260505210912 | 82 | 161 | 9.0 | 17.0 | 0.00 | 0.00 | 0.00 | 82 | 1005.9 |
| 20260505205646 | 82 | 134 | 12.0 | 20.0 | 0.00 | 0.00 | 0.00 | 82 | 1006.1 |
| 20260505205147 | 82 | 161 | 13.0 | 21.0 | 0.00 | 0.00 | 0.00 | 82 | 1006.1 |
| 20260505204643 | 82 | 163 | 13.0 | 21.0 | 0.00 | 0.00 | 0.00 | 82 | 1006.1 |
| 20260505204407 | 82 | 181 | 12.0 | 21.0 | 0.00 | 0.00 | 0.00 | 82 | 1006.3 |
| 20260505203642 | 82 | 170 | 12.0 | 22.0 | 0.00 | 0.00 | 0.00 | 83 | 1006.3 |
| 20260505203138 | 82 | 161 | 12.0 | 22.0 | 0.00 | 0.00 | 0.00 | 83 | 1006.3 |
| 20260505202638 | 81 | 90 | 11.0 | 21.0 | 0.00 | 0.00 | 0.00 | 83 | 1006.6 |
| 20260505202137 | 81 | 172 | 11.0 | 20.0 | 0.00 | 0.00 | 0.00 | 83 | 1006.6 |
| 20260505201636 | 81 | 90 | 12.0 | 22.0 | 0.00 | 0.00 | 0.00 | 83 | 1006.6 |
| 20260505201136 | 82 | 90 | 13.0 | 22.0 | 0.00 | 0.00 | 0.00 | 83 | 1006.6 |
| 20260505200637 | 82 | 190 | 12.0 | 18.0 | 0.00 | 0.00 | 0.00 | 83 | 1006.6 |
| 20260505200138 | 82 | 90 | 11.0 | 18.0 | 0.00 | 0.00 | 0.00 | 83 | 1006.6 |
| 20260505195854 | 81 | 165 | 11.0 | 20.0 | 0.00 | 0.00 | 0.00 | 83 | 1006.7 |
| 20260505195122 | 81 | 90 | 12.0 | 21.0 | 0.00 | 0.00 | 0.00 | 83 | 1006.7 |
| 20260505194616 | 81 | 90 | 11.0 | 20.0 | 0.00 | 0.00 | 0.00 | 83 | 1006.7 |
| 20260505194338 | 81 | 165 | 10.0 | 21.0 | 0.00 | 0.00 | 0.00 | 83 | 1006.8 |
| 20260505193556 | 81 | 90 | 10.0 | 21.0 | 0.00 | 0.00 | 0.00 | 83 | 1006.8 |
| 20260505193046 | 81 | 201 | 8.0 | 18.0 | 0.00 | 0.00 | 0.00 | 83 | 1006.8 |
| 20260505192753 | 81 | 90 | 7.0 | 14.0 | 0.00 | 0.00 | 0.00 | 83 | 1007.0 |
| 20260505192026 | 81 | 90 | 7.0 | 14.0 | 0.00 | 0.00 | 0.00 | 83 | 1007.0 |
| 20260505191743 | 81 | 183 | 8.0 | 16.0 | 0.00 | 0.00 | 0.00 | 83 | 1007.0 |
| 20260505191017 | 81 | 178 | 10.0 | 17.0 | 0.00 | 0.00 | 0.00 | 83 | 1007.1 |
| 20260505190518 | 81 | 168 | 11.0 | 18.0 | 0.00 | 0.00 | 0.00 | 83 | 1007.1 |
| 20260505190017 | 81 | 188 | 11.0 | 18.0 | 0.00 | 0.00 | 0.00 | 83 | 1007.1 |
| 20260505185516 | 81 | 90 | 9.0 | 17.0 | 0.00 | 0.00 | 0.00 | 83 | 1007.2 |
| 20260505185017 | 81 | 90 | 10.0 | 19.0 | 0.00 | 0.00 | 0.00 | 84 | 1007.2 |
| 20260505184516 | 81 | 90 | 11.0 | 19.0 | 0.00 | 0.00 | 0.00 | 84 | 1007.2 |
| 20260505184016 | 81 | 163 | 10.0 | 19.0 | 0.00 | 0.00 | 0.00 | 84 | 1007.2 |
| 20260505183519 | 81 | 196 | 9.0 | 19.0 | 0.00 | 0.00 | 0.00 | 84 | 1007.2 |
| 20260505183014 | 81 | 90 | 8.0 | 15.0 | 0.00 | 0.00 | 0.00 | 84 | 1007.2 |
| 20260505182514 | 81 | 191 | 8.0 | 15.0 | 0.00 | 0.00 | 0.00 | 84 | 1007.2 |
| 20260505182014 | 81 | 180 | 9.0 | 15.0 | 0.00 | 0.00 | 0.00 | 84 | 1007.2 |
| 20260505181010 | 81 | 90 | 9.0 | 19.0 | 0.00 | 0.00 | 0.00 | 84 | 1007.3 |
| 20260505180501 | 81 | 149 | 9.0 | 20.0 | 0.00 | 0.00 | 0.00 | 84 | 1007.3 |
| 20260505175951 | 81 | 184 | 10.0 | 20.0 | 0.00 | 0.00 | 0.00 | 84 | 1007.5 |
| 20260505175444 | 80 | 205 | 9.0 | 16.0 | 0.00 | 0.00 | 0.00 | 84 | 1007.5 |
| 20260505174937 | 80 | 178 | 9.0 | 19.0 | 0.00 | 0.00 | 0.00 | 84 | 1007.5 |
| 20260505174431 | 80 | 179 | 9.0 | 19.0 | 0.00 | 0.00 | 0.00 | 85 | 1007.5 |
| 20260505173917 | 80 | 188 | 9.0 | 19.0 | 0.00 | 0.00 | 0.00 | 85 | 1007.5 |
| 20260505173423 | 80 | 190 | 9.0 | 18.0 | 0.00 | 0.00 | 0.00 | 85 | 1007.5 |
| 20260505173141 | 80 | 164 | 9.0 | 18.0 | 0.00 | 0.00 | 0.00 | 85 | 1007.7 |
| 20260505172420 | 80 | 178 | 9.0 | 18.0 | 0.00 | 0.00 | 0.00 | 85 | 1007.7 |
| 20260505172139 | 80 | 196 | 9.0 | 18.0 | 0.00 | 0.00 | 0.00 | 85 | 1007.7 |
| 20260505171420 | 80 | 182 | 9.0 | 18.0 | 0.00 | 0.00 | 0.00 | 85 | 1007.7 |
| 20260505170917 | 80 | 200 | 9.0 | 15.0 | 0.00 | 0.00 | 0.00 | 86 | 1007.7 |
| 20260505170418 | 80 | 201 | 10.0 | 9.0 | 0.00 | 0.00 | 0.00 | 86 | 1007.7 |
| 20260505165909 | 80 | 211 | 10.0 | 17.0 | 0.00 | 0.00 | 0.00 | 86 | 1007.7 |
| 20260505165406 | 80 | 198 | 9.0 | 16.0 | 0.00 | 0.00 | 0.00 | 86 | 1007.7 |
| 20260505164909 | 79 | 232 | 9.0 | 19.0 | 0.00 | 0.00 | 0.00 | 86 | 1007.7 |
| 20260505164625 | 79 | 203 | 9.0 | 19.0 | 0.00 | 0.00 | 0.00 | 86 | 1007.7 |
| 20260505163909 | 79 | 207 | 8.0 | 17.0 | 0.00 | 0.00 | 0.00 | 86 | 1007.7 |
| 20260505163407 | 79 | 234 | 7.0 | 17.0 | 0.00 | 0.00 | 0.00 | 87 | 1007.7 |
| 20260505162853 | 79 | 198 | 8.0 | 14.0 | 0.00 | 0.00 | 0.00 | 87 | 1007.7 |
| 20260505162606 | 78 | 191 | 8.0 | 17.0 | 0.00 | 0.00 | 0.00 | 87 | 1007.7 |
| 20260505161839 | 78 | 202 | 8.0 | 17.0 | 0.00 | 0.00 | 0.00 | 87 | 1007.7 |
| 20260505161333 | 78 | 234 | 8.0 | 17.0 | 0.00 | 0.00 | 0.00 | 87 | 1007.7 |
| 20260505160832 | 78 | 197 | 7.0 | 17.0 | 0.00 | 0.00 | 0.00 | 87 | 1007.7 |
| 20260505160333 | 78 | 202 | 7.0 | 15.0 | 0.00 | 0.00 | 0.00 | 87 | 1007.7 |
| 20260505153332 | 77 | 207 | 8.0 | 17.0 | 0.00 | 0.00 | 0.00 | 88 | 1007.6 |
| 20260505152831 | 77 | 186 | 8.0 | 17.0 | 0.00 | 0.00 | 0.00 | 88 | 1007.5 |
| 20260505152332 | 77 | 120 | 7.0 | 14.0 | 0.00 | 0.00 | 0.00 | 88 | 1007.5 |
| 20260505151832 | 77 | 184 | 7.0 | 13.0 | 0.00 | 0.00 | 0.00 | 88 | 1007.5 |
| 20260505151331 | 77 | 173 | 8.0 | 16.0 | 0.00 | 0.00 | 0.00 | 88 | 1007.3 |
| 20260505150821 | 77 | 182 | 9.0 | 17.0 | 0.00 | 0.00 | 0.00 | 88 | 1007.3 |
| 20260505150317 | 77 | 90 | 8.0 | 16.0 | 0.00 | 0.00 | 0.00 | 88 | 1007.3 |
| 20260505140641 | 76 | 194 | 8.0 | 16.0 | 0.00 | 0.00 | 0.00 | 88 | 1007.3 |
| 20260505140134 | 75 | 178 | 9.0 | 16.0 | 0.00 | 0.00 | 0.00 | 88 | 1007.3 |
| 20260505125041 | 74 | 202 | 7.0 | 14.0 | 0.00 | 0.00 | 0.00 | 88 | 1007.1 |
| 20260505124803 | 74 | 90 | 7.0 | 11.0 | 0.00 | 0.00 | 0.00 | 88 | 1007.1 |
| 20260505124042 | 74 | 90 | 7.0 | 13.0 | 0.00 | 0.00 | 0.00 | 88 | 1007.0 |
| 20260505123540 | 74 | 176 | 8.0 | 13.0 | 0.00 | 0.00 | 0.00 | 88 | 1007.0 |
| 20260505123038 | 74 | 164 | 8.0 | 13.0 | 0.00 | 0.00 | 0.00 | 88 | 1007.0 |
| 20260505122539 | 74 | 168 | 8.0 | 14.0 | 0.00 | 0.00 | 0.00 | 88 | 1006.6 |
| 20260505122040 | 73 | 90 | 8.0 | 14.0 | 0.00 | 0.00 | 0.00 | 88 | 1006.6 |
| 20260505121757 | 73 | 191 | 8.0 | 14.0 | 0.00 | 0.00 | 0.00 | 88 | 1006.6 |
| 20260505121245 | 73 | 166 | 7.0 | 14.0 | 0.00 | 0.00 | 0.00 | 88 | 1006.6 |
| 20260505120519 | 73 | 90 | 7.0 | 11.0 | 0.00 | 0.00 | 0.00 | 88 | 1006.6 |
| 20260505120018 | 73 | 163 | 7.0 | 11.0 | 0.00 | 0.00 | 0.00 | 88 | 1006.6 |
| 20260505115745 | 73 | 170 | 7.0 | 11.0 | 0.00 | 0.00 | 0.00 | 88 | 1006.7 |
| 20260505115016 | 73 | 152 | 6.0 | 11.0 | 0.00 | 0.00 | 0.00 | 88 | 1006.7 |
| 20260505114740 | 72 | 166 | 7.0 | 11.0 | 0.00 | 0.00 | 0.00 | 88 | 1006.7 |
| 20260505114016 | 72 | 90 | 6.0 | 11.0 | 0.00 | 0.00 | 0.00 | 88 | 1006.7 |
| 20260505113517 | 72 | 170 | 6.0 | 9.0 | 0.00 | 0.00 | 0.00 | 88 | 1006.7 |
| 20260505113236 | 72 | 155 | 6.0 | 8.0 | 0.00 | 0.00 | 0.00 | 88 | 1006.7 |
| 20260505112514 | 72 | 160 | 6.0 | 9.0 | 0.00 | 0.00 | 0.00 | 88 | 1006.7 |
| 20260505112234 | 72 | 157 | 6.0 | 10.0 | 0.00 | 0.00 | 0.00 | 88 | 1006.7 |
| 20260505111513 | 72 | 161 | 6.0 | 10.0 | 0.00 | 0.00 | 0.00 | 88 | 1006.7 |
| 20260505111012 | 72 | 90 | 6.0 | 10.0 | 0.00 | 0.00 | 0.00 | 88 | 1006.7 |
| 20260505110505 | 72 | 161 | 6.0 | 10.0 | 0.00 | 0.00 | 0.00 | 88 | 1006.7 |
| 20260505101843 | 72 | 166 | 7.0 | 12.0 | 0.00 | 0.00 | 0.00 | 87 | 1006.6 |
| 20260505101330 | 72 | 164 | 7.0 | 13.0 | 0.00 | 0.00 | 0.00 | 87 | 1006.8 |
| 20260505100820 | 72 | 90 | 7.0 | 13.0 | 0.00 | 0.00 | 0.00 | 87 | 1006.8 |
| 20260505100314 | 72 | 90 | 7.0 | 12.0 | 0.00 | 0.00 | 0.00 | 87 | 1006.8 |
| 20260505095803 | 72 | 164 | 6.0 | 13.0 | 0.00 | 0.00 | 0.00 | 87 | 1006.8 |
| 20260505095249 | 72 | 90 | 6.0 | 11.0 | 0.00 | 0.00 | 0.00 | 87 | 1006.8 |
| 20260505094743 | 72 | 161 | 6.0 | 11.0 | 0.00 | 0.00 | 0.00 | 87 | 1006.8 |
| 20260505094233 | 72 | 189 | 6.0 | 10.0 | 0.00 | 0.00 | 0.00 | 87 | 1007.1 |
| 20260505093950 | 72 | 186 | 6.0 | 13.0 | 0.00 | 0.00 | 0.00 | 87 | 1007.1 |
| 20260505093218 | 72 | 90 | 6.0 | 13.0 | 0.00 | 0.00 | 0.00 | 87 | 1007.1 |
| 20260505092202 | 72 | 90 | 6.0 | 10.0 | 0.00 | 0.00 | 0.00 | 87 | 1007.0 |
| 20260505091651 | 72 | 90 | 5.0 | 10.0 | 0.00 | 0.00 | 0.00 | 87 | 1007.0 |
| 20260505091137 | 72 | 170 | 5.0 | 10.0 | 0.00 | 0.00 | 0.00 | 87 | 1007.1 |
| 20260505090631 | 72 | 168 | 6.0 | 10.0 | 0.00 | 0.00 | 0.00 | 87 | 1007.1 |
| 20260505090125 | 72 | 175 | 5.0 | 9.0 | 0.00 | 0.00 | 0.00 | 87 | 1007.1 |
| 20260505085611 | 72 | 184 | 5.0 | 11.0 | 0.00 | 0.00 | 0.00 | 87 | 1007.1 |
| 20260505085101 | 72 | 174 | 5.0 | 11.0 | 0.00 | 0.00 | 0.00 | 87 | 1007.1 |
| 20260505084558 | 72 | 164 | 5.0 | 13.0 | 0.00 | 0.00 | 0.00 | 87 | 1007.1 |
| 20260505084059 | 72 | 216 | 5.0 | 13.0 | 0.00 | 0.00 | 0.00 | 87 | 1007.1 |
| 20260505083559 | 72 | 169 | 6.0 | 13.0 | 0.00 | 0.00 | 0.00 | 87 | 1007.1 |
| 20260505083324 | 72 | 90 | 6.0 | 13.0 | 0.00 | 0.00 | 0.00 | 87 | 1007.1 |
| 20260505082559 | 72 | 90 | 6.0 | 11.0 | 0.00 | 0.00 | 0.00 | 87 | 1007.1 |
| 20260505082056 | 71 | 183 | 5.0 | 10.0 | 0.00 | 0.00 | 0.00 | 87 | 1007.1 |
| 20260505081558 | 71 | 168 | 5.0 | 10.0 | 0.00 | 0.00 | 0.00 | 87 | 1007.1 |
| 20260505081307 | 71 | 171 | 5.0 | 10.0 | 0.00 | 0.00 | 0.00 | 86 | 1007.1 |
| 20260505080539 | 71 | 191 | 5.0 | 10.0 | 0.00 | 0.00 | 0.00 | 86 | 1007.1 |